Probability
8 4 1 0 0 0 0 0 0 0 0 1 1 1 1 0 0 0 1 2 2 2 1 2 2 1 0 0 0 0 0 0 0 0 0 0 1 1 1 0 0 0 0 0 0 0 0 0 0
3 2 0 0 0 0 0 0 0 0 0 0 1 1 1 0 0 0 0 1 1 1 1 2 2 2 1 0 0 0 0 0 0 0 0 0 0 0 0 0 0 0 0 0 0 0 0 0 0
0 0 0 0 0 0 0 1 2 1 0 0 0 1 1 0 0 0 0 0 0 0 0 1 3 3 2 1 0 0 0 0 0 0 0 0 0 0 0 0 0 0 0 0 0 0 0 0 0
1 1 1 0 0 0 0 2 3 2 0 0 0 0 0 0 0 0 0 0 0 0 0 1 2 3 3 2 1 0 0 0 0 0 0 0 0 0 0 0 0 0 0 0 0 0 0 0 0
1 1 1 0 0 0 0 1 2 1 0 0 0 0 0 0 0 0 0 0 0 0 0 0 1 2 3 3 1 0 0 0 0 0 0 0 0 1 1 1 0 0 0 0 0 0 0 0 0
2 1 0 0 0 0 0 0 1 0 0 0 0 0 0 0 0 0 0 0 0 0 0 0 1 2 3 4 3 2 1 1 0 0 1 1 1 2 2 1 0 0 0 0 0 0 0 0 0
2 1 0 0 0 0 0 0 0 0 0 0 0 0 0 0 0 0 0 0 0 0 0 0 1 2 2 4 5 5 4 2 1 1 1 2 3 3 3 1 0 0 0 0 0 0 0 0 0
2 1 0 0 0 0 0 0 0 1 1 0 0 0 0 0 0 0 0 0 0 1 1 1 2 2 2 2 4 5 4 3 2 2 2 4 4 3 2 1 0 0 0 0 0 0 0 0 0
1 0 0 0 0 0 0 0 1 2 2 1 0 0 0 0 0 0 0 0 1 2 1 1 2 3 3 3 3 3 2 1 2 2 3 3 2 1 1 1 1 1 1 1 1 1 0 0 0
0 0 0 0 0 0 0 0 1 2 2 1 1 1 0 0 0 0 0 0 1 2 1 0 1 3 3 3 3 3 2 1 1 1 1 1 0 0 0 1 2 2 2 2 2 2 1 0 0
0 0 0 0 0 0 0 0 1 1 2 2 2 2 1 0 0 0 0 0 1 2 1 0 1 3 4 4 3 3 3 2 1 0 0 0 0 0 0 0 1 3 3 3 3 2 1 0 0
0 0 0 0 0 0 0 0 0 0 1 3 3 2 1 0 0 0 0 1 2 3 2 2 2 3 5 5 4 3 4 3 1 1 0 0 0 0 0 0 1 2 3 3 3 3 1 1 1
0 0 0 0 0 1 2 1 0 0 1 3 3 2 0 0 0 0 0 1 2 3 3 3 3 3 4 5 4 4 5 4 3 2 2 2 1 0 0 1 1 2 3 3 3 3 3 2 2
0 0 0 0 0 1 2 1 0 2 3 3 4 3 1 1 1 1 1 1 3 3 3 3 3 3 4 4 4 4 6 6 5 3 3 3 2 1 0 0 0 1 3 3 3 3 3 3 3
0 0 0 0 0 0 1 1 2 4 5 4 4 3 3 3 3 3 2 2 3 3 3 4 5 5 6 5 4 4 5 5 4 3 4 4 3 2 1 0 0 1 2 2 3 3 3 3 3
0 0 0 0 0 0 0 0 2 5 7 6 4 3 4 5 6 5 3 3 3 3 3 4 6 7 8 7 5 4 4 3 2 2 3 4 4 3 2 1 1 2 2 3 3 3 3 3 3
0 0 0 0 0 0 0 0 1 4 7 8 6 4 4 6 7 6 5 4 4 4 3 4 5 7 7 8 7 6 5 4 3 2 2 3 3 3 3 2 2 3 3 3 3 3 3 3 3
0 0 0 0 0 0 0 0 1 3 5 6 5 4 5 6 8 8 8 7 6 4 3 4 5 6 7 8 8 7 6 6 5 4 3 3 4 4 4 4 4 4 3 3 3 3 3 3 3
0 0 0 0 0 0 0 0 0 1 3 4 4 6 7 8 9 11 11 9 8 6 5 5 6 8 9 9 9 8 7 6 7 7 7 6 4 5 7 7 5 4 3 3 3 3 3 3 3
0 0 0 0 0 0 0 0 0 1 3 4 4 7 10 11 10 12 12 12 11 10 8 7 7 9 10 10 9 8 7 6 7 7 8 8 7 8 10 9 6 4 3 3 3 3 3 3 3
0 0 0 0 0 0 0 0 0 1 4 5 6 8 12 13 11 11 11 13 14 14 11 8 8 10 11 11 10 9 8 7 7 6 6 7 9 10 12 11 9 6 4 3 3 4 3 3 3
0 0 0 0 0 0 0 0 0 1 4 7 8 10 13 15 13 11 9 11 15 16 13 11 10 12 13 13 12 12 11 9 7 5 5 6 9 11 12 12 11 9 7 5 5 5 4 2 1
0 0 0 1 0 0 0 0 0 0 2 5 8 11 14 16 15 12 10 11 14 16 16 15 14 15 17 17 17 17 15 11 9 6 5 6 8 12 13 13 12 11 9 8 7 6 4 2 1
0 0 1 2 1 0 0 0 0 0 0 2 7 12 16 16 15 15 14 14 14 16 19 19 17 18 22 24 24 22 19 16 13 9 7 6 8 11 13 13 13 12 10 9 8 7 4 3 2
0 0 0 1 0 0 0 0 0 0 0 1 5 12 17 18 17 19 20 19 17 17 20 21 20 22 26 28 28 25 22 19 17 13 10 7 8 10 12 12 12 11 10 9 8 7 6 4 4
0 0 0 0 0 0 0 0 0 0 1 2 6 13 20 20 20 21 23 23 21 19 21 23 24 25 29 31 30 27 24 21 20 17 13 10 9 10 12 13 11 10 10 9 7 7 6 6 6
0 0 0 0 0 0 0 0 0 0 1 4 8 15 21 20 19 20 23 24 22 20 21 25 27 27 30 33 32 29 27 25 24 21 17 13 12 12 14 14 11 9 9 9 8 7 6 6 6
1 0 0 0 0 0 0 0 0 0 2 6 10 14 18 18 17 18 20 22 22 21 22 26 27 25 27 30 30 30 29 28 27 25 20 17 17 16 16 15 12 10 9 9 9 8 7 7 7
2 1 0 0 0 0 0 0 1 2 4 9 12 14 17 18 17 18 20 22 23 24 25 26 25 24 24 25 25 26 27 28 29 28 25 23 22 21 18 15 13 11 9 8 9 9 8 8 7
2 1 0 0 0 0 0 1 2 3 7 11 15 17 18 18 18 19 22 25 25 26 27 26 24 23 24 24 22 22 25 27 30 31 29 26 25 23 19 15 13 12 9 9 9 9 9 8 8
Wind_Speed
7 6 3 1 4 5 6 5 9 10 9 9 11 11 10 8 6 8 3 8 9 6 5 7 11 12 12 12 12 12 13 13 14 14 14 14 14 15 15 15 15 15 14 14 14 14 14 13 13
4 4 1 3 5 5 5 7 13 13 12 11 12 13 10 9 9 9 5 8 9 7 5 7 11 11 12 12 12 12 12 13 13 13 13 13 13 14 14 14 14 14 14 14 13 13 13 12 12
5 2 2 4 4 5 5 8 13 13 11 9 7 8 7 6 8 6 7 10 9 6 5 7 11 11 11 11 11 11 11 12 12 12 12 12 13 13 13 13 13 13 13 12 12 12 12 11 10
3 2 3 5 6 5 9 10 12 13 10 9 9 8 6 6 6 9 11 11 10 6 5 7 11 11 11 11 11 10 11 11 11 11 11 12 12 12 12 12 12 12 11 12 11 11 11 10 9
2 3 5 5 6 7 9 11 12 12 7 10 11 10 6 5 11 13 11 11 10 6 4 6 10 10 10 10 10 10 10 10 11 10 11 11 11 11 11 11 11 11 11 11 11 11 10 9 8
3 4 5 5 8 9 9 11 15 16 14 12 11 9 4 5 11 11 10 9 9 7 5 5 9 10 9 9 9 9 9 10 10 10 10 10 10 10 10 10 10 10 10 10 10 10 9 8 7
4 4 5 7 9 9 8 9 12 13 11 7 7 7 4 5 7 9 9 8 7 6 5 3 4 6 8 9 9 8 9 9 9 9 9 9 9 9 9 9 9 9 9 9 9 9 8 8 6
4 5 5 6 8 7 7 7 9 12 9 9 6 7 6 5 7 9 8 7 7 5 4 3 3 3 3 4 7 8 8 9 9 8 9 9 8 8 8 7 8 8 8 8 8 8 7 7 6
5 6 5 6 8 7 9 11 8 9 10 6 5 7 9 9 9 9 7 6 5 5 3 3 3 3 3 3 5 5 6 7 6 6 7 6 3 3 4 6 8 8 8 7 7 7 6 6 5
6 6 6 7 9 11 12 13 9 8 10 9 10 10 10 10 10 9 8 6 5 5 3 3 3 4 3 3 3 1 2 2 2 2 2 2 2 3 4 6 8 7 7 6 6 6 5 3 2
5 7 8 10 11 12 12 10 8 11 8 11 14 13 10 10 8 8 7 6 6 5 5 4 4 4 4 3 3 2 1 1 2 2 2 2 2 2 2 2 3 3 4 2 2 2 1 2 2
7 7 9 10 11 11 11 9 8 9 10 13 14 13 10 9 8 7 7 6 5 5 5 4 4 4 4 4 3 2 2 2 2 2 3 2 2 2 2 2 2 2 1 1 1 1 2 2 2
8 8 9 11 12 11 12 11 10 10 13 13 13 11 10 9 7 6 6 6 6 5 4 4 4 4 4 4 2 3 2 2 2 2 2 3 3 2 2 2 2 2 2 2 2 2 2 2 1
6 9 9 10 11 11 14 10 8 11 14 13 12 10 10 10 8 7 6 5 5 5 4 4 4 4 4 3 3 3 2 2 2 1 2 3 2 2 2 2 2 2 2 2 2 3 2 2 2
7 9 7 7 8 7 11 7 8 13 13 12 11 10 9 8 8 8 8 6 6 6 5 4 4 4 4 4 3 2 2 2 2 2 2 3 3 3 3 2 2 1 1 2 2 2 2 2 2
5 6 4 2 6 6 8 6 8 12 14 11 10 10 9 8 9 8 8 6 6 6 6 5 5 5 4 3 3 2 2 2 2 2 2 3 3 3 3 2 1 1 2 2 2 2 2 1 1
3 3 4 3 4 5 6 6 8 11 13 11 10 10 9 8 7 7 8 7 7 7 6 5 5 5 4 3 2 2 2 2 1 2 2 2 2 3 3 2 1 2 2 2 2 2 2 2 2
4 4 3 4 5 6 6 5 8 11 12 12 11 9 9 10 9 8 8 8 7 7 6 6 5 5 4 3 2 2 2 1 1 1 2 2 2 2 3 2 2 2 2 1 2 2 1 2 2
7 5 4 4 6 6 7 8 9 9 11 11 10 10 10 10 9 9 8 8 7 6 6 6 5 4 3 2 2 2 1 1 1 1 2 2 2 2 2 2 2 2 2 1 1 2 2 1 2
6 5 3 2 4 5 6 6 9 10 13 14 14 12 12 10 8 9 9 9 8 8 6 6 5 5 4 3 2 2 2 1 1 0 1 1 2 2 2 3 2 1 2 1 1 2 2 1 1
4 7 7 5 1 2 6 1 5 6 7 9 10 11 11 13 12 11 11 10 9 9 8 7 6 6 5 4 3 2 2 2 1 1 0 0 1 2 2 2 2 1 2 1 1 2 3 2 1
6 8 8 7 4 2 5 3 5 7 6 8 10 10 11 12 11 11 10 10 10 10 8 7 7 6 5 5 4 4 3 2 2 1 1 0 1 1 2 2 2 2 2 1 1 1 1 2 1
7 6 6 6 5 2 1 3 6 4 8 11 12 13 13 13 13 13 13 12 10 10 9 8 7 6 5 5 5 4 3 2 1 1 1 0 0 1 1 2 2 2 1 1 1 1 1 1 2
5 5 4 5 4 1 3 3 5 7 12 12 12 13 13 13 13 12 11 10 9 8 8 8 7 6 5 5 5 5 4 3 2 1 1 0 0 1 1 2 2 1 1 1 1 1 1 1 1
5 7 3 3 3 5 3 3 8 9 9 12 13 12 12 12 12 11 11 10 10 9 9 8 8 6 6 6 5 5 5 4 3 2 2 2 1 0 0 1 1 1 1 1 1 1 1 1 1
5 10 9 6 4 4 2 3 7 5 5 7 9 10 11 12 11 12 12 11 11 11 10 9 9 7 7 6 5 4 4 3 2 2 2 2 2 1 1 2 1 1 1 1 1 1 0 1 1
5 5 8 8 3 1 3 4 5 1 3 5 6 9 11 12 12 11 11 10 10 10 10 10 9 7 7 6 5 4 4 4 3 2 2 1 1 2 2 2 2 1 1 1 2 1 1 1 1
7 8 6 6 5 2 3 4 5 5 5 6 7 8 9 10 10 11 11 10 9 9 8 9 8 8 7 6 5 4 3 3 3 3 2 2 1 2 2 2 2 2 1 1 2 1 1 2 1
2 3 5 5 6 7 3 7 8 10 9 8 8 7 8 10 10 10 9 10 9 8 8 8 7 7 6 6 5 5 4 3 3 2 2 2 2 2 3 2 3 2 2 2 2 2 2 2 2
6 6 7 5 3 5 5 8 5 8 8 9 9 7 7 9 10 9 9 9 8 8 8 8 7 7 6 6 5 5 4 4 4 3 2 2 3 2 3 3 3 3 2 2 2 2 2 2 2
Wind_Direction
161 162 158 111 56 60 70 76 87 77 65 62 73 80 78 63 88 119 156 137 128 123 113 107 103 99 97 96 95 95 95 97 101 103 106 108 111 114 118 119 121 123 124 124 124 124 122 121 122
156 166 125 59 75 80 73 90 87 90 111 104 81 78 74 71 83 111 126 134 127 124 118 112 108 105 102 100 98 98 99 101 103 105 108 112 114 117 119 120 122 122 123 125 126 126 124 123 123
157 172 81 62 77 109 110 104 101 98 93 86 83 63 61 88 102 119 142 137 125 117 118 122 116 112 109 107 105 104 105 106 108 109 112 115 117 119 120 122 122 123 125 128 128 127 126 124 125
133 84 59 74 88 110 117 118 108 99 76 66 83 70 63 84 108 128 137 132 125 123 126 130 123 117 114 112 110 110 112 112 112 114 117 118 120 121 122 124 124 125 129 130 130 130 130 128 127
80 78 69 78 91 100 107 111 105 96 80 80 86 92 77 62 108 126 132 131 131 130 128 133 127 123 120 119 118 118 120 120 120 122 124 123 124 125 126 127 128 129 130 134 134 135 134 133 132
67 70 80 89 91 94 98 101 99 96 102 97 94 95 81 101 116 130 129 129 130 130 128 132 133 131 130 129 127 127 127 128 129 130 130 129 130 131 133 135 134 133 134 136 141 142 141 140 138
114 99 114 114 103 105 113 108 107 117 116 107 112 97 107 114 127 132 130 126 125 126 124 120 132 134 137 137 137 136 136 136 135 135 135 135 136 136 139 140 140 140 142 143 144 145 144 145 143
143 110 109 108 109 113 122 106 114 116 110 118 112 118 145 159 137 126 124 122 123 124 127 127 133 132 137 143 147 144 141 141 141 144 143 141 140 141 144 143 146 148 148 149 152 152 152 153 153
118 95 120 133 125 120 110 101 101 100 106 103 89 115 140 139 125 115 112 112 125 134 139 143 149 155 156 161 150 144 142 144 144 147 150 144 134 143 151 153 156 158 156 156 159 162 164 165 159
107 116 147 138 131 129 123 118 118 104 100 98 100 111 123 124 122 125 127 129 135 143 155 159 160 167 170 168 141 135 144 141 138 137 142 144 150 159 158 157 163 166 163 166 170 173 172 163 140
112 127 125 120 124 122 122 117 112 118 120 135 135 136 135 129 130 133 135 141 148 149 148 156 156 155 157 151 147 153 149 144 145 149 147 132 129 139 143 142 155 157 164 167 165 160 148 147 150
105 116 123 124 122 119 123 120 111 119 139 144 142 142 139 138 142 144 141 142 139 134 137 143 137 133 139 135 142 148 143 149 149 153 147 136 133 139 148 151 151 153 155 144 150 134 135 136 153
102 115 117 120 120 121 117 117 118 124 134 138 140 139 140 144 144 143 140 139 133 131 134 133 124 118 117 114 129 129 142 149 158 151 146 136 132 136 141 149 148 154 154 154 155 147 141 147 174
122 122 119 119 121 125 119 120 114 137 140 141 145 148 149 150 148 139 138 138 140 138 138 136 121 114 112 114 119 132 151 146 141 143 151 138 137 132 126 123 137 154 165 166 160 159 148 151 152
107 103 95 111 114 128 116 107 137 150 146 147 152 153 152 152 151 152 156 156 152 146 140 135 128 111 110 115 121 119 134 129 135 153 146 130 131 131 127 126 136 160 156 147 140 139 132 144 147
87 90 109 168 131 146 114 141 161 156 150 153 158 159 156 158 160 161 160 158 151 141 141 144 132 119 113 108 107 108 117 124 135 140 130 131 137 137 127 129 143 149 130 132 135 132 125 133 142
60 118 151 181 173 140 114 155 173 164 156 160 166 166 164 161 160 162 159 155 152 150 148 144 129 135 135 121 114 105 100 115 129 121 120 128 134 137 133 138 144 118 112 124 143 133 140 143 151
178 159 170 179 195 144 136 162 170 174 166 169 172 171 167 167 169 165 157 157 153 152 147 143 140 144 139 120 98 83 74 78 103 116 126 129 131 134 131 133 132 121 113 110 124 137 139 152 158
167 160 172 198 184 148 158 167 179 186 177 174 177 176 173 176 174 161 161 159 153 154 152 150 149 159 143 129 125 124 127 111 89 109 129 135 140 133 124 128 123 126 129 137 141 137 131 131 117
158 156 188 193 184 145 159 186 195 191 190 184 181 180 178 175 169 167 170 167 166 168 168 161 160 161 161 160 153 148 144 140 152 137 118 139 133 135 135 133 139 136 121 113 122 143 147 172 154
190 180 187 192 201 106 127 172 202 205 200 190 187 181 177 177 177 176 176 176 171 173 176 173 171 166 167 156 129 104 82 68 69 63 72 89 123 125 132 134 139 135 130 145 179 167 163 183 221
208 207 180 173 138 209 147 176 241 204 203 201 194 189 187 184 179 179 181 180 179 182 178 172 169 167 168 157 147 144 142 151 185 184 168 98 113 130 141 143 144 140 129 141 202 185 176 157 185
200 189 172 171 147 129 128 138 259 196 204 210 199 193 191 186 180 182 186 185 181 179 177 173 167 168 168 164 163 155 154 168 170 141 119 88 42 102 134 132 132 140 141 149 144 80 122 141 161
158 93 60 56 78 141 229 153 247 210 204 199 199 191 189 186 183 184 184 180 177 176 174 170 166 171 170 165 162 163 165 166 151 151 141 129 57 39 79 121 122 130 134 141 146 111 101 116 117
117 101 58 18 18 248 227 168 239 233 204 192 190 188 185 182 178 177 175 175 175 175 175 169 166 173 175 169 171 175 176 171 171 175 168 158 130 72 233 136 124 127 142 133 108 102 94 104 101
175 142 155 176 195 266 313 223 254 241 197 186 183 179 176 177 179 178 177 176 176 175 174 169 171 175 176 174 181 182 176 171 175 172 162 164 170 174 150 128 129 120 117 111 98 90 99 78 86
159 164 161 135 147 142 270 277 305 22 129 158 165 168 175 177 177 176 174 174 174 174 174 173 171 173 176 179 178 182 176 169 170 164 148 146 157 139 122 124 118 104 100 104 107 85 69 67 64
160 150 103 119 149 195 249 240 224 212 181 169 164 171 172 168 169 172 171 172 176 173 170 167 167 173 175 173 173 170 174 169 161 144 142 141 137 123 113 108 109 106 99 102 105 92 66 81 57
132 119 119 129 156 154 198 256 222 199 183 172 176 173 163 159 165 168 168 170 170 163 160 163 166 163 161 163 160 155 156 149 140 144 160 150 130 126 124 121 111 102 90 87 93 92 78 80 52
163 165 146 153 203 157 160 258 253 184 177 166 167 167 162 158 163 161 161 159 157 156 157 163 165 164 167 163 155 156 153 145 142 146 149 137 136 132 131 116 106 103 100 99 103 97 84 87 74